Regional Weather Roundup
Issued by NWS Albany, NY

Current Version | Previous Version | Text Only | Print | Product List | Glossary Off
Versions: 1 2 3 4 5 6 7 8 9 10 11 12 13 14 15 16 17 18 19 20 21 22 23 24 25 26 27 28 29 30 31 32 33 34 35 36 37 38 39 40 41 42 43 44 45 46 47 48 49 50
000 ASUS41 KALY 211510 RWRALY NEW YORK STATE HOURLY WEATHER ROUNDUP NATIONAL WEATHER SERVICE ALBANY NY 1100 AM EDT SAT OCT 21 2017 NOTE: "FAIR" INDICATES FEW OR NO CLOUDS BELOW 12,000 FEET WITH NO SIGNIFICANT WEATHER AND/OR NO OBSTRUCTIONS TO VISIBILITY. NYZ032-033-038>043-046>054-057>066-NYZ062>081-082-084-211600- EAST CITY SKY/WX TMP DP RH WIND PRES REMARKS ALBANY MOSUNNY 60 40 47 S7 30.33S GLENS FALLS SUNNY 56 40 55 SW6 30.31S POUGHKEEPSIE SUNNY 60 42 51 CALM 30.33F NEWBURGH SUNNY 66 43 42 W6 30.35S MONTGOMERY SUNNY 64 44 48 S5 30.33S WHITE PLAINS SUNNY 70 37 29 W6 30.33S ISLIP MOSUNNY 72 48 42 CALM 30.33S NEW YORK CITY MOSUNNY 68 46 45 CALM 30.33S CENTRAL PARK SUNNY 67 40 37 VRB3 30.36S $$ NYZ005>009-017-018-044>046-055-056-211600- CENTRAL CITY SKY/WX TMP DP RH WIND PRES REMARKS FULTON SUNNY 62 43 49 S5 30.31S SYRACUSE MOSUNNY 59 45 59 CALM 30.31S ROME SUNNY 58 43 57 CALM 30.34S ELMIRA SUNNY 53 43 68 CALM 30.35F BINGHAMTON SUNNY 59 37 44 SW5 30.35S MONTICELLO SUNNY 64 40 41 W6 30.37F $$ NYZ026>034-041>043-087-211600- NORTH CITY SKY/WX TMP DP RH WIND PRES REMARKS WATERTOWN SUNNY 65 44 46 SW14 30.28S FORT DRUM NOT AVBL OGDENSBURG FAIR 65 50 58 SW8 30.25S MASSENA SUNNY 64 47 53 SW9 30.26S SARANAC LAKE SUNNY 59 37 44 SW7 30.28S PLATTSBURGH SUNNY 60 45 57 SE9 30.24F $$ NYZ001>004-010>016-019>021-085-211600- WEST CITY SKY/WX TMP DP RH WIND PRES REMARKS NIAGARA FALLS MOSUNNY 66 46 48 S7 30.28S BUFFALO CLOUDY 63 45 51 S8 30.29S DUNKIRK CLOUDY 69 44 40 S12 30.29F JAMESTOWN MOSUNNY 57 40 52 S5 30.34F WELLSVILLE CLOUDY 67 40 37 VRB5 30.36S ROCHESTER PTSUNNY 63 42 46 SW13 30.30S PENN YAN SUNNY 62 41 46 SW7 30.33S $$ KEY WCI = WIND CHILL INDEX VSB = VISIBILITY HX = HEAT INDEX $$

USA.gov is the U.S. government's official web portal to all federal, state and local government web resources and services.